SL-14 R/B

Last updated on Mon Sep 21 2026 00:02:08 GMT+0000 (Coordinated Universal Time)

1 21423U 91042B 26263.62808605 .00000229 00000+0 25936-4 0 9993 2 21423 82.4937 37.3674 0016063 324.7021 35.3128 14.81948439881945
UTC large
Height (km)
Speed (km/s)
/
Latitude / Longitude
Inclination (degrees)
Orbital Period (minutes)
Azimuth
Elevation
Range (km)
Doppler Factor

Next 0 passes for location: London (51.5072 / 0.1276)

No passes found over London.
SL-14 R/B